sat.trackr.live / text

‹ back to catalog

2024-203D

NORAD 61872 · 2024-203D

PAYLOAD ACTIVE UNKNOWN

§ Identity

Operator
Country
PRC
Launch date
2024-11-09
Launch site
JSC
Launch vehicle
Mass (kg)
RCS (m²)

External: N2YO · Heavens-Above · Gunter

§ Orbital elements

Epoch: 2026-05-24T19:38:06.278208Z

Period
94.32 min
Inclination
97.4263°
Eccentricity
0.0012254
Mean motion
15.26705251 rev/d
Perigee alt
477.3 km
Apogee alt
494.1 km
Semi-major
6,863.8 km
B*
4.3311e-4
RAAN
215.0779°
Arg perigee
70.0626°
Mean anomaly
290.1931°
Rev number
8,535

§ Raw data

2024-203D1 61872U 24203D   26144.81812822  .00011332  00000+0  43311-3 0  99982 61872  97.4263 215.0779 0012254  70.0626 290.1931 15.26705251 85353

JSON: /api/v1/satellites/61872 · /tle

For live sub-satellite position, see the globe view (requires WebGL).

§ Visibility from observer

Set your observer location to see the next 7 days of passes ≥ 10°. The values pass through the URL so the page stays shareable.

No JS? Fill the form by hand. The geolocation button needs JavaScript.